Rawlins, WY

10:43 PM MST on December 14, 2017 (GMT -0700)
Rawlins Municipal

Weather History for KRWL - October, 2011

Change the Weather History Date:

Thursday, October 27, 2011

  Actual Average Record
Temperature  
Mean Temperature 28 °F 39 °F  
Max Temperature 43 °F 51 °F 70 °F (2016)
Min Temperature 12 °F 27 °F 7 °F (1996)
Degree Days  
Heating Degree Days 37 26  
Month to date heating degree days 491 564  
Since 1 July heating degree days 722 950  
Cooling Degree Days 0 0  
Month to date cooling degree days 0 0  
Year to date cooling degree days 242 186  
Moisture  
Dew Point 15 °F    
Average Humidity 55    
Maximum Humidity 80    
Minimum Humidity 30    
Precipitation  
Precipitation 0.00 in 0.02 in 0.35 in (1971)
Month to date precipitation 0.70 0.67  
Year to date precipitation 8.36 8.19  
Sea Level Pressure  
Sea Level Pressure 30.19 in    
Wind  
Wind Speed 13 mph (WSW)    
Max Wind Speed 23 mph    
Max Gust Speed 31 mph    
Visibility 10 miles    
Events      
T = Trace of Precipitation, MM = Missing Value Source: NWS Daily Summary

Daily Weather History Graph

Daily Weather History Graph

Search for Another Location

Airport or City:

Trip Planner

Search our weather history database for the weather conditions in past years. The results will help you decide how hot, cold, wet, or windy it might be!

Date:

Astronomy

Oct. 27, 2011 Rise Set
Actual Time 7:34 AM MDT 6:09 PM MDT
Civil Twilight 7:06 AM MDT 6:38 PM MDT
Nautical Twilight 6:33 AM MDT 7:11 PM MDT
Astronomical Twilight 6:01 AM MDT 7:43 PM MDT
Moon 8:43 AM MDT (10/27) 6:39 PM MDT (10/27)
Length of Visible Light 11h 32m
Length of Day
10h 35m
New Moon, 1% of the Moon is Illuminated
Oct 27
New Moon
Nov 2
First Quarter
Nov 10
Full
Nov 18
Last Quarter
Nov 24
New

Hourly Weather History & Observations

Time (MDT) Temp. Windchill Dew Point Humidity Pressure Visibility Wind Dir Wind Speed Gust Speed Precip Events Conditions
12:53 AM 16.0 °F - 10.9 °F 81% 30.27 in 10.0 mi Calm Calm - N/A   Clear
2:53 AM 19.0 °F 8.2 °F 12.9 °F 77% 30.25 in 10.0 mi SW 9.2 mph - N/A   Clear
3:53 AM 21.0 °F 11.4 °F 14.0 °F 74% 30.22 in 10.0 mi SSW 8.1 mph - N/A   Clear
6:53 AM 21.9 °F 8.7 °F 14.0 °F 72% 30.24 in 10.0 mi WSW 15.0 mph - N/A   Clear
7:53 AM 24.1 °F 11.0 °F 14.0 °F 65% 30.25 in 10.0 mi WSW 16.1 mph - N/A   Partly Cloudy
8:53 AM 26.1 °F 15.0 °F 15.1 °F 63% 30.26 in 10.0 mi SW 12.7 mph - N/A   Overcast
9:53 AM 32.0 °F 22.5 °F 15.1 °F 50% 30.22 in 10.0 mi WSW 12.7 mph 20.7 mph N/A   Partly Cloudy
10:53 AM 32.0 °F 22.5 °F 12.9 °F 45% 30.22 in 10.0 mi WSW 12.7 mph 20.7 mph N/A   Mostly Cloudy
11:53 AM 35.1 °F 26.4 °F 14.0 °F 42% 30.23 in 10.0 mi West 12.7 mph - N/A   Partly Cloudy
12:53 PM 37.9 °F 28.5 °F 15.1 °F 39% 30.21 in 10.0 mi West 17.3 mph - N/A   Clear
1:53 PM 41.0 °F 32.2 °F 14.0 °F 33% 30.16 in 10.0 mi WSW 18.4 mph 25.3 mph N/A   Clear
2:53 PM 41.0 °F 32.5 °F 14.0 °F 33% 30.13 in 10.0 mi SW 17.3 mph 24.2 mph N/A   Clear
3:53 PM 43.0 °F 34.8 °F 14.0 °F 31% 30.09 in 10.0 mi SW 18.4 mph 25.3 mph N/A   Clear
4:53 PM 41.0 °F 32.2 °F 14.0 °F 33% 30.10 in 10.0 mi SW 18.4 mph 24.2 mph N/A   Clear
5:53 PM 37.9 °F 30.0 °F 16.0 °F 41% 30.14 in 10.0 mi WSW 12.7 mph - N/A   Clear
6:53 PM 35.1 °F 26.4 °F 16.0 °F 46% 30.18 in 10.0 mi WSW 12.7 mph - N/A   Clear
7:53 PM 32.0 °F 23.0 °F 16.0 °F 52% 30.19 in 10.0 mi SW 11.5 mph - N/A   Clear
8:53 PM 30.9 °F 22.8 °F 17.1 °F 57% 30.19 in 10.0 mi SW 9.2 mph - N/A   Clear
9:53 PM 33.1 °F 22.2 °F 17.1 °F 52% 30.17 in 10.0 mi WSW 17.3 mph - N/A   Clear
10:53 PM 30.9 °F 19.1 °F 17.1 °F 57% 30.18 in 10.0 mi WSW 18.4 mph - N/A   Clear
11:53 PM 30.0 °F 20.5 °F 16.0 °F 56% 30.17 in 10.0 mi WSW 11.5 mph 18.4 mph N/A   Clear